Lapse_Rate
5.5 5.5 5.5 5.6 5.8 5.9 6.0 6.0 6.0 6.0 6.0 6.0 6.0 6.0 6.2 6.6 6.8 7.2 7.3 7.3 7.4 7.6 7.7 7.7 7.6 7.5 7.5 7.4 7.4 6.9 6.5 7.4 7.4 7.1 7.0 6.7 6.5 6.7 6.3 6.1 6.1 6.2 6.4 6.1 6.1
5.7 5.7 5.8 5.8 5.9 6.0 6.1 6.1 6.0 5.9 5.9 6.0 6.1 6.2 6.3 6.6 6.9 7.1 7.3 7.4 7.5 7.9 8.1 8.1 8.2 7.9 7.8 7.6 7.3 7.0 7.7 7.5 7.4 7.2 7.3 7.1 6.9 6.7 6.3 6.1 6.0 6.1 6.4 6.5 6.0
5.9 5.9 6.0 6.0 6.1 6.1 6.2 6.1 6.0 5.9 5.9 5.9 6.0 6.2 6.4 6.6 6.8 7.0 7.3 7.3 7.5 7.9 8.1 7.9 7.9 8.2 8.3 7.9 7.6 7.7 7.6 7.5 7.4 7.4 7.5 7.6 7.3 6.9 6.5 6.2 6.5 6.2 6.4 6.2 5.7
6.1 6.2 6.2 6.2 6.2 6.2 6.3 6.2 6.1 6.0 6.0 5.9 5.9 6.1 6.4 6.6 6.7 7.1 7.4 7.4 7.6 7.8 7.8 7.7 7.7 7.9 8.1 8.0 7.8 8.1 8.0 7.8 7.8 7.5 7.5 7.7 7.6 6.9 6.5 6.6 6.7 6.6 5.8 5.8 5.7
6.2 6.3 6.4 6.4 6.4 6.4 6.4 6.3 6.2 6.1 6.1 6.0 6.0 6.2 6.4 6.7 6.9 7.1 7.3 7.5 7.6 7.5 7.5 7.6 7.7 7.9 7.7 7.9 7.8 8.1 8.2 8.0 7.7 7.6 7.5 7.6 7.5 7.1 7.0 6.5 7.0 6.9 6.6 5.8 5.7
6.2 6.4 6.5 6.6 6.7 6.7 6.6 6.6 6.4 6.4 6.3 6.4 6.4 6.4 6.5 6.8 6.9 7.1 7.4 7.5 7.7 7.5 7.5 7.7 7.8 7.8 7.8 8.0 7.8 8.3 8.2 7.7 7.6 7.6 7.6 7.7 7.8 7.2 7.1 7.0 7.0 7.0 7.0 6.8 6.1
6.2 6.2 6.4 6.6 6.7 6.8 6.8 6.7 6.7 6.6 6.6 6.6 6.7 6.8 6.9 6.8 6.9 7.2 7.6 7.8 7.5 7.4 7.5 7.7 8.0 7.9 8.2 8.0 8.2 8.2 7.8 7.8 7.8 8.0 8.2 7.8 7.9 7.7 7.3 7.4 7.4 7.4 7.1 6.8 6.7
6.2 6.2 6.3 6.4 6.6 6.8 6.9 6.8 6.7 6.7 6.7 6.8 6.9 6.9 7.1 7.3 7.4 7.3 7.6 7.7 7.4 7.6 7.9 7.9 8.3 8.8 8.6 8.2 8.4 8.3 8.1 8.1 8.0 8.0 8.3 8.1 8.3 8.5 7.9 7.7 7.5 7.5 7.5 6.9 6.9
6.4 6.3 6.3 6.3 6.5 6.7 6.8 6.8 6.8 6.9 6.9 7.0 7.0 7.1 7.2 7.2 7.3 7.2 7.5 7.4 7.6 7.6 7.4 7.5 8.1 9.1 8.5 8.4 8.5 8.4 8.3 8.5 8.4 8.3 8.4 8.3 8.3 8.6 8.4 8.0 7.8 7.8 7.9 7.4 7.1
6.6 6.5 6.4 6.3 6.5 6.7 6.7 6.9 7.0 7.1 7.1 7.1 7.1 7.2 7.0 7.1 7.3 7.4 7.4 7.2 7.3 7.3 7.1 7.3 7.7 8.7 8.6 8.5 8.3 8.2 8.0 8.1 8.7 8.8 8.6 8.8 8.8 8.6 8.4 8.3 8.2 8.0 8.0 7.8 7.5
6.7 6.7 6.5 6.3 6.6 6.6 6.7 7.0 7.1 7.2 7.4 7.4 7.2 7.2 7.2 7.1 7.3 7.5 7.1 7.3 7.5 7.5 7.2 7.2 8.0 8.4 8.2 8.3 8.0 8.3 8.5 8.6 9.2 9.2 8.6 8.8 8.8 8.6 8.5 8.1 8.2 8.4 8.3 8.3 7.8
6.8 6.8 6.7 6.5 6.7 6.7 6.8 6.9 7.0 7.2 7.3 7.3 7.3 7.3 7.2 7.3 7.3 7.2 7.4 7.4 7.6 7.7 7.6 7.8 8.1 8.2 8.0 8.0 7.9 8.1 8.3 8.4 9.0 9.0 8.9 8.6 8.7 8.7 8.7 8.8 8.8 8.6 8.6 8.6 8.2
6.9 6.9 6.8 6.7 6.9 6.8 6.5 6.7 6.9 7.1 7.4 7.4 7.4 7.3 7.3 7.3 7.2 7.3 7.4 7.5 7.6 7.6 7.7 7.8 8.2 8.0 7.9 8.0 7.9 7.8 8.4 8.4 8.2 8.6 8.8 8.7 8.9 8.9 8.8 8.9 8.9 8.8 8.6 8.4 8.5
7.0 7.0 6.9 6.8 7.0 6.6 6.7 7.0 7.1 7.3 7.6 7.7 7.7 7.5 7.6 7.5 7.5 7.4 7.3 7.4 7.5 7.7 7.6 7.8 8.2 8.1 8.0 8.3 8.0 8.0 8.4 8.4 8.7 8.8 8.7 8.8 8.6 9.0 9.0 9.1 9.2 9.0 8.7 8.8 8.8
7.1 7.1 7.0 6.9 7.0 6.9 7.0 7.2 7.1 7.3 6.9 8.1 7.8 7.9 7.6 7.6 7.7 7.6 7.4 7.3 7.5 7.7 7.7 8.0 8.1 8.1 8.3 8.4 8.2 8.5 8.6 8.6 8.5 8.7 8.7 8.5 8.3 9.1 8.7 9.1 9.2 9.2 9.0 9.0 8.9
7.3 7.2 7.1 7.0 7.1 7.1 7.2 7.3 7.3 7.4 7.9 8.1 8.0 7.9 7.7 7.7 7.7 7.8 7.7 7.5 7.7 7.6 8.1 8.5 8.3 8.0 8.2 8.1 8.4 8.7 8.5 8.4 8.8 8.8 8.2 8.8 8.3 8.3 8.2 8.2 8.9 9.1 9.2 9.0 8.7
7.7 7.4 7.2 7.1 7.2 7.1 7.2 7.4 7.6 7.9 8.2 8.5 8.4 8.1 7.8 7.8 7.7 7.7 7.7 7.6 8.2 8.8 8.9 8.7 8.4 8.4 8.3 8.4 8.6 8.6 8.4 8.5 8.0 7.1 7.6 8.6 8.0 6.7 8.0 8.4 8.8 8.8 9.0 9.2 8.5
7.7 7.5 7.4 7.2 7.3 7.2 7.3 7.6 7.7 8.2 8.5 8.2 8.3 8.0 8.1 8.2 8.1 8.0 8.0 8.6 8.9 8.9 8.8 8.7 8.6 8.9 8.8 8.7 8.9 8.8 8.7 8.4 7.8 6.7 7.3 7.9 7.1 6.8 7.8 8.5 8.8 8.8 8.9 9.1 9.0
7.7 7.6 7.6 7.4 7.4 7.3 7.5 7.8 8.2 8.2 8.4 8.5 8.7 8.7 8.5 8.8 8.6 8.4 8.6 8.8 9.1 9.1 8.7 8.6 8.9 9.4 9.1 8.9 8.7 9.0 9.0 8.7 8.5 7.9 7.3 7.3 6.9 7.1 7.6 8.2 8.7 8.8 8.6 8.7 8.8
7.6 7.7 7.7 7.4 7.3 7.4 7.6 8.3 8.6 8.5 8.5 8.8 9.0 8.9 8.9 9.0 9.0 9.0 9.0 9.0 9.1 9.1 8.7 8.8 9.3 9.1 8.8 8.6 8.5 9.0 9.0 8.9 8.7 7.5 7.5 7.4 7.7 7.6 7.7 8.1 8.3 8.4 8.4 8.5 8.5
7.5 7.6 7.5 7.4 7.3 7.5 7.9 8.4 8.6 8.6 8.6 8.7 8.7 8.9 9.1 9.0 9.2 9.2 8.9 8.8 8.9 8.9 9.0 9.3 9.3 9.2 9.1 8.4 8.6 8.9 8.9 8.7 8.5 8.3 6.7 6.6 7.8 7.7 8.1 8.2 8.2 8.4 8.6 8.7 8.3
7.3 7.5 7.3 7.3 7.3 7.6 8.2 8.5 8.5 8.5 8.3 8.8 8.8 8.4 8.9 8.9 8.9 8.8 8.8 9.0 8.9 8.8 8.7 8.9 9.1 9.1 8.7 8.6 8.4 8.5 8.6 8.5 8.4 8.1 8.2 7.5 7.3 7.7 7.7 7.9 7.8 7.8 8.0 8.0 8.1
7.5 7.4 7.3 7.2 7.1 7.6 8.2 8.5 8.5 8.3 8.3 8.7 8.5 8.2 8.8 8.7 8.9 8.8 8.7 8.5 8.7 8.1 8.1 8.6 8.7 8.6 8.9 8.5 8.6 8.4 8.2 8.2 8.2 7.9 7.9 7.2 7.0 7.6 7.7 7.8 7.9 7.8 7.7 7.6 7.8
7.5 7.3 7.3 7.3 7.3 7.7 8.2 8.5 8.1 8.1 8.3 8.7 8.6 8.3 8.4 8.7 8.6 8.5 8.5 7.7 8.1 8.2 8.2 8.5 8.7 8.0 8.0 7.9 7.6 7.6 7.6 8.0 8.1 7.9 7.9 7.8 7.5 7.3 7.3 7.5 7.5 7.4 7.4 7.2 7.2
7.9 7.6 7.5 7.3 7.3 7.5 7.8 8.1 7.9 8.1 8.0 8.2 8.5 8.7 8.6 8.5 8.3 8.3 8.4 8.2 8.1 8.2 8.3 8.5 8.5 7.7 7.1 7.1 7.2 7.4 7.6 8.1 8.1 8.2 8.1 8.2 8.0 7.6 7.2 7.1 7.1 7.1 6.9 6.7 6.8
7.8 7.7 7.3 7.2 7.5 7.6 7.7 7.5 7.8 8.0 7.9 8.1 8.2 8.3 8.3 8.1 8.3 8.5 8.5 8.5 8.2 7.8 7.9 8.0 8.1 7.8 7.6 7.1 7.0 7.2 7.3 7.6 7.8 7.9 7.9 7.8 7.1 7.1 7.0 7.0 6.9 6.6 6.7 6.7 6.6
7.6 7.5 7.3 7.2 7.4 7.7 7.5 7.2 7.4 7.7 7.6 7.5 7.7 8.0 8.0 8.1 8.2 8.0 8.0 8.2 8.2 7.7 7.3 7.2 7.4 7.6 7.6 7.1 7.1 7.0 7.1 7.4 7.4 7.6 7.5 7.2 6.9 6.5 6.3 6.3 6.4 6.4 6.5 6.6 6.7
Wind_Speed
12 12 13 13 14 14 14 15 16 17 17 18 19 20 20 22 23 2 5 7 4 4 1 5 1 4 2 5 6 3 4 2 5 6 4 12 6 4 5 5 3 3 1 11 18
13 13 13 14 14 14 14 15 16 16 17 19 19 20 20 20 4 6 10 6 4 2 4 6 7 8 2 2 4 4 4 8 6 5 6 8 6 9 5 4 1 2 7 21 19
13 13 13 14 15 15 15 15 15 17 17 18 20 20 20 15 5 6 6 4 4 1 1 2 4 2 3 1 5 5 5 4 6 7 8 9 5 8 10 3 6 14 20 21 19
13 14 14 14 15 16 16 15 15 16 17 17 18 20 24 2 3 4 3 8 2 1 2 4 6 6 4 4 2 4 5 5 7 7 6 7 8 4 7 5 14 15 22 20 20
14 14 15 15 15 15 16 16 15 16 16 16 17 18 6 2 9 8 5 4 2 2 1 3 3 4 4 5 5 1 4 6 5 10 8 4 7 5 5 10 17 17 19 21 18
15 15 15 15 15 16 16 16 16 15 15 14 14 16 2 3 4 7 3 2 3 1 2 2 2 4 3 3 5 4 6 2 6 6 9 7 3 7 2 12 20 19 20 20 19
16 16 16 16 16 16 16 16 16 15 14 12 11 3 0 12 1 11 6 3 1 2 3 4 2 2 1 4 4 5 5 4 3 4 6 6 0 5 7 13 20 20 16 18 18
17 17 16 16 16 16 18 18 17 15 12 9 5 1 7 5 6 9 1 6 4 6 5 8 4 1 2 3 7 5 4 0 5 6 2 7 7 5 11 14 15 19 13 15 18
17 17 17 16 16 17 18 19 18 14 7 4 1 1 9 9 3 7 7 3 5 3 4 3 6 3 5 4 5 6 2 3 5 6 4 3 6 5 12 13 13 16 15 13 15
17 17 16 15 15 17 20 20 7 5 3 3 3 3 5 3 3 3 4 1 2 4 6 7 5 3 4 5 3 4 3 6 5 5 6 5 8 7 15 15 15 14 14 15 15
18 16 15 14 13 14 9 2 3 2 1 8 5 4 5 7 3 3 2 3 2 7 3 3 4 4 6 5 4 5 4 7 4 5 5 6 4 8 17 12 12 13 14 15 17
18 15 13 12 11 10 2 2 3 3 5 10 4 7 6 2 4 2 4 4 3 3 2 6 5 10 4 3 6 4 5 5 4 3 5 4 10 5 12 21 19 17 15 15 11
17 14 12 11 9 3 2 6 3 6 2 6 6 5 6 8 6 8 8 4 2 0 3 5 10 4 5 4 6 5 5 3 6 2 3 0 8 3 6 7 7 14 14 12 14
16 14 10 8 4 1 4 3 8 6 4 5 3 7 5 6 3 7 8 5 1 7 4 5 7 4 5 7 6 3 3 2 3 3 4 2 4 6 2 5 9 9 11 12 9
16 12 7 4 4 3 1 7 2 3 3 3 4 1 3 8 2 4 4 4 6 5 4 8 5 4 3 7 6 7 3 2 1 3 1 3 3 7 5 4 6 9 13 13 12
16 9 4 3 2 7 10 7 2 5 2 1 4 5 5 1 3 2 4 4 2 4 2 8 4 4 7 6 4 3 4 4 4 3 2 4 4 5 6 4 4 1 9 9 5
12 6 6 2 3 8 5 3 5 3 3 3 4 5 3 4 3 4 5 6 3 2 3 6 5 4 5 2 5 7 6 4 4 5 5 0 6 4 6 9 5 8 11 10 11
13 5 7 5 4 8 3 5 2 3 4 3 2 4 6 6 4 3 7 4 5 4 2 2 7 2 1 7 6 3 7 5 2 2 4 1 3 3 4 7 8 12 14 14 12
1 1 3 4 15 1 5 3 6 5 2 2 5 5 3 3 3 4 3 5 6 8 5 3 5 5 1 2 4 1 2 4 6 3 3 1 3 4 4 8 8 15 14 8 7
2 1 3 6 15 4 5 4 4 5 2 2 4 5 7 4 5 6 6 2 4 7 3 4 1 2 6 6 5 2 3 2 3 3 1 2 3 7 3 5 7 8 12 8 7
1 2 2 7 2 5 3 6 6 7 3 3 4 5 5 5 7 5 3 4 3 4 6 5 3 6 4 4 2 6 4 4 4 4 5 2 3 4 6 2 7 7 6 10 8
1 3 1 1 3 1 2 5 5 6 4 5 3 4 6 5 4 4 4 1 4 1 3 3 4 1 3 5 5 3 3 4 5 3 2 3 4 4 4 6 6 7 8 5 8
3 2 2 3 1 2 5 5 5 3 5 1 1 1 2 3 5 3 5 6 7 3 3 2 4 3 7 6 6 5 4 4 4 3 2 5 4 4 5 9 6 7 6 6 7
3 3 3 3 1 4 2 6 4 4 4 3 4 5 7 8 7 3 5 3 6 5 8 8 3 5 5 5 2 4 4 2 4 3 4 5 4 2 3 7 5 5 6 7 6
4 1 3 2 4 3 4 4 6 5 3 7 7 5 5 4 4 4 3 2 4 3 4 4 3 3 4 4 3 4 4 7 4 5 5 6 6 4 6 6 5 5 2 6 5
3 2 4 2 3 3 4 2 3 2 2 5 7 5 7 5 4 4 4 1 2 4 3 3 3 3 1 3 2 1 7 4 4 5 6 11 6 3 2 3 2 4 3 3 4
2 2 3 4 6 2 3 2 5 2 10 5 7 5 9 4 4 3 3 2 2 6 3 3 6 3 3 3 5 4 7 5 4 5 6 7 4 4 4 5 4 5 6 6 7
Wind_Direction
339 337 336 334 333 334 335 334 334 334 332 330 329 329 325 325 317 189 259 212 134 25 239 289 239 244 138 198 181 126 71 162 191 164 157 141 156 208 71 112 67 17 174 137 146
339 338 335 332 331 332 333 333 333 333 333 330 329 328 326 332 312 279 252 238 129 0 346 8 324 348 352 235 165 123 120 192 198 183 167 187 171 158 138 136 45 110 91 140 143
338 333 331 328 328 329 330 330 331 331 332 331 328 327 325 326 327 258 309 84 130 83 67 302 297 6 325 13 190 182 161 188 197 184 165 177 195 158 123 207 204 164 144 148 155
336 330 327 325 323 325 325 326 328 328 329 330 329 326 323 300 261 271 289 99 139 65 15 334 350 5 4 320 278 117 193 181 186 184 170 178 144 188 179 224 156 154 154 156 165
334 329 325 323 321 320 319 321 323 323 324 327 329 330 344 349 251 265 291 98 310 47 348 350 6 351 355 299 7 8 209 184 194 169 195 155 170 179 206 103 144 150 161 170 177
332 328 323 320 317 315 315 316 316 316 317 323 329 326 350 260 264 332 71 352 234 143 257 215 289 277 268 330 83 256 280 210 192 201 179 173 155 125 179 129 143 165 172 176 182
330 327 322 318 316 314 313 311 308 307 308 316 325 316 340 232 21 321 321 206 230 192 277 229 182 360 335 330 273 314 355 0 160 212 211 111 97 216 152 154 156 175 188 189 186
330 325 321 318 315 312 310 305 300 296 296 305 320 282 248 256 315 305 43 294 232 237 213 260 211 186 42 312 359 22 35 29 270 169 206 109 259 222 160 164 180 183 194 197 190
327 323 321 317 315 312 306 300 294 285 272 262 355 122 269 308 203 240 192 240 311 335 311 324 52 58 21 56 6 16 296 237 297 198 114 159 254 205 167 183 188 191 191 199 199
326 321 320 316 316 313 308 296 276 285 190 189 254 331 273 244 238 216 143 163 338 356 9 36 43 31 47 69 253 279 345 297 212 235 168 201 256 167 178 187 199 196 193 197 204
326 322 319 317 316 321 341 52 35 2 244 196 193 257 295 293 246 199 173 81 58 54 200 347 43 256 253 202 211 261 242 261 256 239 148 233 263 205 187 199 207 205 204 202 208
326 322 317 314 313 318 320 190 200 207 304 224 244 278 268 259 334 301 108 145 126 194 74 16 262 247 248 193 240 237 238 256 292 324 130 236 254 214 187 203 202 197 204 205 194
325 320 315 312 313 312 216 236 241 22 68 292 184 202 227 145 193 236 139 170 163 60 188 166 243 76 183 266 266 273 237 252 201 357 340 319 309 268 244 216 192 207 200 194 186
323 316 311 311 319 246 253 257 270 168 59 269 240 265 170 172 243 193 183 144 43 221 180 233 288 266 283 232 149 255 194 264 235 93 222 42 265 304 294 207 195 195 190 191 174
322 311 295 244 308 195 127 329 141 63 92 155 207 353 144 151 238 248 185 61 185 210 100 251 287 329 312 216 168 225 186 263 76 123 84 315 93 268 346 154 227 209 198 190 184
322 302 244 192 234 245 310 316 76 40 45 297 158 161 111 225 272 107 137 81 164 178 215 246 247 225 221 240 194 77 92 55 71 88 37 244 143 335 347 302 311 259 201 191 157
318 278 198 221 221 325 289 76 44 121 333 190 172 153 153 189 253 161 151 203 184 88 321 333 274 259 203 0 7 67 53 350 353 11 218 138 53 269 324 23 26 73 85 91 114
316 225 236 240 277 351 37 53 173 211 254 289 184 72 174 162 250 184 116 192 251 100 111 199 332 286 224 169 193 162 149 153 244 221 272 262 70 240 350 4 44 79 90 97 106
119 181 263 254 212 110 70 89 212 206 237 346 78 83 313 278 174 125 147 190 225 174 178 151 268 317 168 108 99 103 244 179 109 359 72 167 84 45 4 74 58 77 77 71 63
164 160 260 140 157 85 75 238 249 221 263 149 128 162 208 243 166 136 184 198 214 190 129 217 20 342 317 51 17 129 169 1 9 143 217 291 167 168 243 115 120 78 90 72 61
94 61 287 169 122 52 166 240 277 269 10 311 150 175 206 185 164 158 127 327 0 35 127 168 99 300 42 25 262 11 14 35 117 110 156 171 274 226 185 213 114 104 89 108 106
120 57 316 19 59 40 176 210 272 271 246 253 126 188 168 203 82 109 117 233 24 197 49 344 128 262 162 311 318 68 116 107 105 261 86 137 265 329 135 55 83 82 90 72 82
85 116 332 81 142 269 292 276 257 269 290 218 145 184 92 135 110 93 96 333 13 52 145 178 19 10 354 1 349 34 335 105 106 90 203 136 242 7 51 79 80 105 89 84 84
86 81 338 36 148 151 318 278 276 282 237 50 65 56 53 28 358 124 88 360 360 66 54 79 91 139 187 222 228 322 318 40 104 116 181 212 183 145 135 129 146 127 119 116 121
26 168 185 227 277 226 156 278 303 329 26 20 20 33 143 40 47 54 91 40 26 23 57 87 123 151 216 258 272 250 299 311 209 217 170 187 143 190 174 168 162 143 148 130 135
80 42 357 248 310 313 156 265 229 287 46 2 105 36 87 114 210 153 123 123 180 24 70 36 190 180 267 233 306 302 341 26 76 117 71 115 101 183 179 131 157 172 193 71 61
315 340 105 308 337 61 335 356 325 352 20 69 136 87 67 134 192 220 199 185 157 160 163 126 141 103 257 334 345 11 333 341 75 28 126 139 186 142 117 83 91 71 64 39 12